�������l�o���
Date,Time,MP-1(��Sv/h),MP-2(��Sv/h),MP-3(��Sv/h),MP-4(��Sv/h),MP-5(��Sv/h),MP-6(��Sv/h),MP-7(��Sv/h),MP-8(��Sv/h),����,����(m/s),���J
2016/12/10,00:00,1.103,1.840,1.212,2.096,1.438,0.576,1.045,0.966,���k��,7.3,��
2016/12/10,00:10,1.103,1.845,1.212,2.095,1.439,0.575,1.044,0.967,���k��,7.1,��
2016/12/10,00:20,1.103,1.841,1.211,2.096,1.440,0.574,1.045,0.968,���k��,7.6,��
2016/12/10,00:30,1.102,1.843,1.212,2.094,1.439,0.574,1.044,0.967,���k��,8.9,��
2016/12/10,00:40,1.101,1.841,1.212,2.096,1.438,0.576,1.042,0.968,��,7.5,��
2016/12/10,00:50,1.102,1.843,1.212,2.096,1.441,0.576,1.044,0.967,���k��,8.1,��
2016/12/10,01:00,1.102,1.842,1.212,2.097,1.436,0.577,1.045,0.967,���k��,7.5,��
2016/12/10,01:10,1.104,1.843,1.211,2.092,1.437,0.575,1.042,0.966,��,6.9,��
2016/12/10,01:20,1.103,1.843,1.211,2.095,1.437,0.576,1.044,0.967,��,6.5,��
2016/12/10,01:30,1.102,1.840,1.209,2.095,1.438,0.574,1.044,0.968,��,6.8,��
2016/12/10,01:40,1.103,1.844,1.211,2.098,1.437,0.575,1.044,0.968,���k��,8.2,��
2016/12/10,01:50,1.102,1.844,1.211,2.094,1.438,0.574,1.044,0.969,���k��,9.0,��
2016/12/10,02:00,1.100,1.843,1.212,2.096,1.437,0.576,1.043,0.967,���k��,7.7,��
2016/12/10,02:10,1.101,1.842,1.212,2.096,1.437,0.577,1.042,0.970,���k��,7.6,��
2016/12/10,02:20,1.100,1.842,1.211,2.096,1.437,0.576,1.041,0.966,���k��,6.9,��
2016/12/10,02:30,1.101,1.842,1.211,2.095,1.435,0.574,1.042,0.966,���k��,6.0,��
2016/12/10,02:40,1.102,1.843,1.212,2.094,1.437,0.575,1.043,0.967,���k��,6.0,��
2016/12/10,02:50,1.101,1.842,1.210,2.095,1.436,0.574,1.043,0.967,���k��,5.6,��
2016/12/10,03:00,1.103,1.844,1.211,2.095,1.437,0.576,1.044,0.968,���k��,5.7,��
2016/12/10,03:10,1.103,1.842,1.212,2.095,1.436,0.576,1.042,0.968,���k��,6.0,��
2016/12/10,03:20,1.101,1.841,1.209,2.097,1.437,0.574,1.042,0.968,���k��,5.0,��
2016/12/10,03:30,1.102,1.841,1.210,2.094,1.436,0.574,1.043,0.968,��,3.4,��
2016/12/10,03:40,1.100,1.841,1.210,2.095,1.434,0.574,1.042,0.968,���k��,4.0,��
2016/12/10,03:50,1.100,1.840,1.210,2.095,1.436,0.576,1.043,0.967,�k��,3.9,��
2016/12/10,04:00,1.099,1.843,1.210,2.093,1.433,0.574,1.043,0.967,�k��,2.6,��
2016/12/10,04:10,1.102,1.842,1.207,2.096,1.438,0.574,1.041,0.967,���k��,2.2,��
2016/12/10,04:20,1.101,1.840,1.208,2.090,1.436,0.574,1.043,0.967,��,3.8,��
2016/12/10,04:30,1.100,1.842,1.209,2.095,1.437,0.574,1.042,0.964,���k��,3.2,��
2016/12/10,04:40,1.101,1.840,1.208,2.093,1.439,0.575,1.041,0.966,���k��,1.7,��
2016/12/10,04:50,1.100,1.842,1.208,2.096,1.437,0.574,1.041,0.966,���k��,2.8,��
2016/12/10,05:00,1.098,1.843,1.209,2.095,1.437,0.573,1.041,0.967,���k��,3.4,��
2016/12/10,05:10,1.101,1.843,1.209,2.094,1.437,0.573,1.039,0.968,���k��,3.1,��
2016/12/10,05:20,1.098,1.845,1.210,2.094,1.436,0.576,1.040,0.967,��쐼,2.6,��
2016/12/10,05:30,1.099,1.839,1.207,2.094,1.439,0.575,1.042,0.967,��쐼,2.6,��
2016/12/10,05:40,1.098,1.842,1.210,2.094,1.437,0.575,1.040,0.966,���k��,2.2,��
2016/12/10,05:50,1.099,1.840,1.207,2.093,1.436,0.577,1.042,0.967,�k��,7.4,��
2016/12/10,06:00,1.100,1.845,1.207,2.095,1.437,0.574,1.041,0.966,�k��,7.0,��
2016/12/10,06:10,1.097,1.838,1.208,2.097,1.435,0.574,1.042,0.966,�k��,5.1,��
2016/12/10,06:20,1.097,1.844,1.208,2.094,1.435,0.576,1.041,0.967,�k��,5.0,��
2016/12/10,06:30,1.101,1.843,1.207,2.094,1.435,0.574,1.040,0.968,�k�k��,5.9,��
2016/12/10,06:40,1.100,1.838,1.210,2.092,1.437,0.574,1.040,0.965,�k�k��,5.6,��
2016/12/10,06:50,1.100,1.843,1.210,2.095,1.436,0.573,1.040,0.964,�k�k��,4.5,��
2016/12/10,07:00,1.099,1.842,1.207,2.095,1.435,0.572,1.043,0.966,�k,3.0,��
2016/12/10,07:10,1.098,1.840,1.208,2.091,1.436,0.574,1.040,0.967,�k,2.9,��
2016/12/10,07:20,1.098,1.838,1.206,2.093,1.435,0.573,1.040,0.965,�k,3.6,��
2016/12/10,07:30,1.097,1.843,1.207,2.094,1.436,0.573,1.040,0.966,�k�k��,2.0,��
2016/12/10,07:40,1.097,1.838,1.208,2.091,1.435,0.572,1.040,0.966,�k��,0.8,��
2016/12/10,07:50,1.099,1.837,1.207,2.095,1.434,0.574,1.042,0.964,��,0.6,��
2016/12/10,08:00,1.098,1.841,1.208,2.094,1.434,0.573,1.043,0.965,-,CALM,��
2016/12/10,08:10,1.099,1.841,1.209,2.095,1.436,0.574,1.044,0.968,�k�k��,1.7,��
2016/12/10,08:20,1.097,1.838,1.207,2.096,1.436,0.575,1.044,0.967,�k,3.6,��
2016/12/10,08:30,1.100,1.843,1.208,2.093,1.438,0.574,1.044,0.965,�k,4.2,��
2016/12/10,08:40,1.100,1.838,1.209,2.093,1.437,0.574,1.043,0.965,�k�k��,6.0,��
2016/12/10,08:50,1.097,1.842,1.207,2.095,1.435,0.573,1.043,0.967,�k,6.5,��
2016/12/10,09:00,1.100,1.843,1.207,2.094,1.437,0.572,1.043,0.965,�k,5.5,��
2016/12/10,09:10,1.096,1.841,1.210,2.096,1.437,0.572,1.046,0.966,�k,4.9,��
2016/12/10,09:20,1.098,1.842,1.207,2.097,1.436,0.575,1.045,0.964,�k,4.5,��
2016/12/10,09:30,1.098,1.844,1.207,2.098,1.438,0.573,1.043,0.967,�k,4.7,��
2016/12/10,09:40,1.100,1.846,1.209,2.095,1.438,0.574,1.041,0.966,�k,4.6,��
2016/12/10,09:50,1.099,1.846,1.209,2.096,1.437,0.574,1.040,0.965,�k�k��,2.0,��
2016/12/10,10:00,1.099,1.842,1.209,2.096,1.439,0.574,1.041,0.968,�k��,3.9,��
2016/12/10,10:10,1.100,1.844,1.209,2.095,1.440,0.573,1.039,0.966,���k��,3.6,��
2016/12/10,10:20,1.102,1.848,1.207,2.100,1.439,0.574,1.040,0.968,�k�k��,2.3,��
2016/12/10,10:30,1.101,1.846,1.208,2.096,1.441,0.574,1.042,0.967,�k�k��,1.7,��
2016/12/10,10:40,1.102,1.849,1.209,2.098,1.441,0.574,1.043,0.967,���k��,2.6,��
2016/12/10,10:50,1.101,1.846,1.210,2.099,1.439,0.576,1.042,0.966,��,2.0,��
2016/12/10,11:00,1.104,1.846,1.212,2.097,1.442,0.574,1.043,0.968,�k��,2.0,��
2016/12/10,11:10,1.100,1.846,1.208,2.099,1.441,0.576,1.044,0.966,���k��,1.9,��
2016/12/10,11:20,1.101,1.848,1.212,2.100,1.441,0.576,1.043,0.967,���k��,1.7,��
2016/12/10,11:30,1.103,1.849,1.213,2.098,1.443,0.576,1.042,0.967,-,CALM,��
2016/12/10,11:40,1.103,1.848,1.213,2.099,1.441,0.575,1.043,0.968,��,7.0,��
2016/12/10,11:50,1.106,1.850,1.214,2.098,1.443,0.575,1.042,0.969,���k��,7.9,��
2016/12/10,12:00,1.105,1.848,1.209,2.101,1.441,0.574,1.042,0.968,���k��,10.2,��
2016/12/10,12:10,1.108,1.849,1.211,2.101,1.442,0.575,1.047,0.967,���k��,8.5,��
2016/12/10,12:20,1.103,1.848,1.214,2.101,1.443,0.576,1.044,0.968,���k��,11.0,��
2016/12/10,12:30,1.106,1.851,1.213,2.102,1.443,0.577,1.044,0.966,��,9.7,��
2016/12/10,12:40,1.106,1.850,1.213,2.102,1.440,0.576,1.044,0.967,���k��,11.3,��
2016/12/10,12:50,1.103,1.844,1.213,2.100,1.443,0.576,1.044,0.968,���k��,6.5,��
2016/12/10,13:00,1.104,1.846,1.213,2.100,1.443,0.576,1.046,0.967,�k��,8.2,��
2016/12/10,13:10,1.103,1.843,1.215,2.102,1.443,0.577,1.043,0.965,���k��,6.8,��
2016/12/10,13:20,1.105,1.848,1.216,2.104,1.442,0.578,1.045,0.967,���k��,7.4,��
2016/12/10,13:30,1.104,1.847,1.213,2.102,1.445,0.575,1.044,0.965,���k��,7.4,��
2016/12/10,13:40,1.106,1.846,1.214,2.103,1.446,0.576,1.044,0.964,���k��,7.1,��
2016/12/10,13:50,1.104,1.847,1.218,2.105,1.446,0.576,1.044,0.965,���k��,8.7,��
2016/12/10,14:00,1.107,1.848,1.215,2.103,1.444,0.576,1.045,0.967,���k��,8.5,��
2016/12/10,14:10,1.106,1.849,1.217,2.103,1.446,0.577,1.043,0.966,���k��,10.2,��
2016/12/10,14:20,1.106,1.845,1.217,2.104,1.447,0.577,1.044,0.971,���k��,9.8,��
2016/12/10,14:30,1.106,1.852,1.218,2.106,1.448,0.576,1.045,0.969,���k��,8.1,��
2016/12/10,14:40,1.106,1.852,1.216,2.105,1.444,0.575,1.045,0.969,��,8.4,��
2016/12/10,14:50,1.107,1.854,1.217,2.106,1.444,0.573,1.046,0.970,��,8.8,��
2016/12/10,15:00,1.106,1.851,1.216,2.105,1.444,0.576,1.046,0.970,��,8.3,��
2016/12/10,15:10,1.104,1.853,1.215,2.104,1.446,0.578,1.044,0.968,��,7.7,��
2016/12/10,15:20,1.104,1.856,1.216,2.104,1.447,0.579,1.044,0.966,��,6.7,��
2016/12/10,15:30,1.106,1.852,1.215,2.107,1.446,0.576,1.046,0.968,��,5.6,��
2016/12/10,15:40,1.107,1.852,1.216,2.106,1.445,0.575,1.046,0.968,��,5.4,��
2016/12/10,15:50,1.104,1.853,1.216,2.106,1.445,0.578,1.044,0.967,�k�k��,4.3,��
2016/12/10,16:00,1.103,1.852,1.218,2.104,1.445,0.577,1.045,0.967,�k�k��,3.6,��
2016/12/10,16:10,1.103,1.853,1.217,2.107,1.450,0.575,1.045,0.967,�k�k��,4.0,��
2016/12/10,16:20,1.103,1.855,1.217,2.107,1.449,0.576,1.042,0.969,�k��,4.0,��
2016/12/10,16:30,1.102,1.853,1.215,2.104,1.449,0.575,1.045,0.967,�k�k��,1.7,��
2016/12/10,16:40,1.101,1.851,1.218,2.104,1.449,0.575,1.043,0.969,�k�k��,2.6,��
2016/12/10,16:50,1.102,1.854,1.214,2.105,1.447,0.576,1.043,0.966,�k,4.1,��
2016/12/10,17:00,1.101,1.853,1.212,2.104,1.439,0.577,1.043,0.966,�k�k��,4.1,��
2016/12/10,17:10,1.100,1.849,1.212,2.105,1.445,0.576,1.044,0.967,�k�k��,3.1,��
2016/12/10,17:20,1.098,1.852,1.212,2.102,1.444,0.574,1.041,0.965,�k,3.1,��
2016/12/10,17:30,1.102,1.850,1.212,2.102,1.445,0.575,1.041,0.967,�k�k��,2.9,��
2016/12/10,17:40,1.098,1.853,1.213,2.097,1.447,0.575,1.043,0.964,�k�k��,2.6,��
2016/12/10,17:50,1.099,1.849,1.211,2.100,1.445,0.573,1.041,0.966,�k,2.6,��
2016/12/10,18:00,1.098,1.848,1.213,2.103,1.444,0.573,1.040,0.967,�k�k��,2.3,��
2016/12/10,18:10,1.099,1.849,1.210,2.101,1.447,0.573,1.039,0.965,�k�k��,1.7,��
2016/12/10,18:20,1.098,1.851,1.209,2.101,1.444,0.575,1.042,0.968,�k��,1.7,��
2016/12/10,18:30,1.100,1.850,1.209,2.099,1.444,0.575,1.042,0.966,���k��,1.1,��
2016/12/10,18:40,1.101,1.850,1.210,2.100,1.443,0.573,1.041,0.966,�k�k��,1.5,��
2016/12/10,18:50,1.100,1.850,1.209,2.102,1.447,0.574,1.041,0.967,�k�k��,1.7,��
2016/12/10,19:00,1.098,1.848,1.212,2.097,1.446,0.571,1.039,0.965,�k��,3.6,��
2016/12/10,19:10,1.100,1.850,1.209,2.097,1.444,0.573,1.038,0.964,�k��,4.0,��
2016/12/10,19:20,1.098,1.851,1.213,2.101,1.446,0.572,1.039,0.965,�k��,4.1,��
2016/12/10,19:30,1.098,1.847,1.210,2.100,1.445,0.573,1.042,0.964,�k��,4.6,��
2016/12/10,19:40,1.100,1.850,1.211,2.098,1.446,0.573,1.041,0.964,�k��,4.5,��
2016/12/10,19:50,1.099,1.849,1.210,2.101,1.443,0.573,1.040,0.965,���k��,4.5,��
2016/12/10,20:00,1.097,1.851,1.210,2.098,1.445,0.571,1.040,0.967,���k��,3.5,��
2016/12/10,20:10,1.098,1.846,1.210,2.099,1.443,0.571,1.042,0.965,���k��,2.9,��
2016/12/10,20:20,1.097,1.849,1.211,2.100,1.443,0.573,1.040,0.964,�k��,3.5,��
2016/12/10,20:30,1.099,1.847,1.208,2.101,1.444,0.572,1.040,0.967,�k��,2.3,��
2016/12/10,20:40,1.097,1.846,1.210,2.097,1.441,0.571,1.040,0.966,���k��,2.5,��
2016/12/10,20:50,1.098,1.848,1.210,2.102,1.445,0.574,1.039,0.968,���k��,2.3,��
2016/12/10,21:00,1.098,1.849,1.210,2.099,1.446,0.573,1.039,0.967,���k��,3.2,��
2016/12/10,21:10,1.098,1.847,1.211,2.100,1.443,0.571,1.041,0.966,�k��,3.2,��
2016/12/10,21:20,1.097,1.847,1.210,2.098,1.444,0.571,1.037,0.965,�k��,2.9,��
2016/12/10,21:30,1.097,1.847,1.209,2.101,1.444,0.572,1.039,0.964,�k�k��,3.4,��
2016/12/10,21:40,1.097,1.848,1.209,2.100,1.442,0.573,1.040,0.965,�k�k��,3.7,��
2016/12/10,21:50,1.099,1.847,1.211,2.099,1.443,0.572,1.039,0.965,�k�k��,4.0,��
2016/12/10,22:00,1.097,1.844,1.210,2.100,1.445,0.572,1.040,0.965,�k�k��,2.6,��
2016/12/10,22:10,1.096,1.849,1.210,2.097,1.444,0.572,1.041,0.965,�k�k��,4.0,��
2016/12/10,22:20,1.096,1.848,1.208,2.099,1.441,0.573,1.042,0.966,�k�k��,3.9,��
2016/12/10,22:30,1.097,1.847,1.208,2.098,1.441,0.570,1.042,0.966,�k,4.7,��
2016/12/10,22:40,1.098,1.847,1.206,2.101,1.443,0.573,1.041,0.963,�k,5.0,��
2016/12/10,22:50,1.096,1.850,1.208,2.098,1.443,0.571,1.042,0.966,�k,5.2,��
2016/12/10,23:00,1.098,1.847,1.209,2.101,1.444,0.572,1.041,0.966,�k,4.7,��
2016/12/10,23:10,1.097,1.849,1.208,2.096,1.442,0.573,1.040,0.966,�k,3.8,��
2016/12/10,23:20,1.095,1.849,1.209,2.096,1.440,0.573,1.042,0.964,�k,4.0,��
2016/12/10,23:30,1.095,1.848,1.208,2.101,1.445,0.571,1.038,0.964,�k�k��,4.9,��
2016/12/10,23:40,1.097,1.846,1.209,2.099,1.440,0.571,1.041,0.965,�k,3.0,��
2016/12/10,23:50,1.096,1.847,1.211,2.099,1.440,0.572,1.039,0.966,�k,3.3,��
